Location: Piolenc
(44.1794°N, 4.7641°E)
Time: 04:40:37
(UTC+00:00)

STARLINK-2105 - Pass Details

Date: 27 January 2021
Orbit: 379 x 380 km, 53.1° (Epoch: 27 February)

Event Time Altitude Azimuth Distance (km) Brightness Sun altitude
Exits shadow 05:43:58 11° 220° (SW) 1,333 5.3 -14.4°
Maximum altitude 05:46:53 56° 142° (SE) 465 3.5 -13.9°
Drops below altitude 10° 05:50:00 10° 62° (ENE) 1,422 6.5 -13.3°
Sets 05:52:06 0° 58° (ENE) 2,284 7.5 -13.0°
